When you browse on this site, cookies collect data to enhance your experience and personalize the content and advertising you see.
Visit our Privacy Policy to learn more. By continuing to use the site, you agree to this use of cookies and data.

Tiempo cada hora Siva

Hoy, 7 Agosto, Viernes

Tiempo Temperatura Precipitaciones Viento Presión Humedad
00:00 +33°C° 0 mm 4 mps 753 mmHg 25%
01:00 +33°C° 0 mm 3 mps 753 mmHg 27%
02:00 +31°C° 0 mm 3 mps 753 mmHg 28%
03:00 +30°C° 0 mm 3 mps 753 mmHg 31%
04:00 +29°C° 0 mm 3 mps 753 mmHg 33%
05:00 +29°C° 0 mm 3 mps 753 mmHg 35%
06:00 +30°C° 0 mm 2 mps 753 mmHg 33%
07:00 +31°C° 0 mm 2 mps 753 mmHg 31%
08:00 +32°C° 0 mm 2 mps 754 mmHg 30%
09:00 +35°C° 0 mm 2 mps 754 mmHg 25%
10:00 +37°C° 0 mm 1 mps 754 mmHg 20%
11:00 +40°C° 0 mm 1 mps 754 mmHg 16%
12:00 +41°C° 0 mm 1 mps 753 mmHg 14%
13:00 +43°C° 0 mm 1 mps 753 mmHg 12%
14:00 +44°C° 0 mm 1 mps 752 mmHg 11%
15:00 +45°C° 0 mm 1 mps 752 mmHg 10%
16:00 +46°C° 0 mm 2 mps 751 mmHg 9%
17:00 +46°C° 0 mm 2 mps 751 mmHg 9%
18:00 +43°C° 0 mm 2 mps 751 mmHg 10%
19:00 +40°C° 0 mm 2 mps 751 mmHg 12%
20:00 +38°C° 0 mm 2 mps 752 mmHg 14%
21:00 +37°C° 0 mm 3 mps 752 mmHg 20%
22:00 +36°C° 0 mm 4 mps 752 mmHg 26%
23:00 +35°C° 0 mm 5 mps 753 mmHg 32%

Mañana, 8 Agosto, Sábado

Tiempo Temperatura Precipitaciones Viento Presión Humedad
00:00 +34°C° 0 mm 5 mps 752 mmHg 36%
01:00 +33°C° 0 mm 4 mps 752 mmHg 39%
02:00 +32°C° 0 mm 4 mps 752 mmHg 42%
03:00 +30°C° 0 mm 3 mps 752 mmHg 45%
04:00 +29°C° 0 mm 3 mps 752 mmHg 49%
05:00 +28°C° 0 mm 2 mps 753 mmHg 52%
06:00 +29°C° 0 mm 3 mps 753 mmHg 49%
07:00 +30°C° 0 mm 3 mps 753 mmHg 46%
08:00 +31°C° 0 mm 3 mps 753 mmHg 43%
09:00 +35°C° 0 mm 2 mps 753 mmHg 37%
10:00 +37°C° 0 mm 2 mps 753 mmHg 30%
11:00 +39°C° 0 mm 2 mps 753 mmHg 24%
12:00 +41°C° 0 mm 2 mps 752 mmHg 20%
13:00 +42°C° 0 mm 2 mps 752 mmHg 17%
14:00 +45°C° 0 mm 2 mps 751 mmHg 14%
15:00 +46°C° 0 mm 3 mps 750 mmHg 13%
16:00 +46°C° 0 mm 3 mps 750 mmHg 12%
17:00 +47°C° 0 mm 4 mps 749 mmHg 11%
18:00 +44°C° 0 mm 4 mps 750 mmHg 13%
19:00 +42°C° 0 mm 4 mps 750 mmHg 16%
20:00 +40°C° 0 mm 4 mps 750 mmHg 18%
21:00 +37°C° 0 mm 5 mps 751 mmHg 28%
22:00 +35°C° 0 mm 5 mps 751 mmHg 38%
23:00 +32°C° 0 mm 6 mps 751 mmHg 48%

Pasado mañana, 9 Agosto, Domingo

Tiempo Temperatura Precipitaciones Viento Presión Humedad
00:00 +30°C° 0 mm 5 mps 751 mmHg 51%
01:00 +29°C° 0 mm 4 mps 751 mmHg 55%
02:00 +28°C° 0 mm 3 mps 750 mmHg 58%
03:00 +28°C° 0 mm 3 mps 751 mmHg 61%
04:00 +27°C° 0 mm 3 mps 751 mmHg 63%
05:00 +27°C° 0 mm 3 mps 751 mmHg 65%
06:00 +27°C° 0 mm 3 mps 751 mmHg 63%
07:00 +28°C° 0 mm 3 mps 751 mmHg 60%
08:00 +29°C° 0 mm 3 mps 752 mmHg 58%
09:00 +31°C° 0 mm 2 mps 752 mmHg 51%
10:00 +32°C° 0 mm 2 mps 752 mmHg 44%
11:00 +34°C° 0 mm 1 mps 752 mmHg 38%
12:00 +37°C° 0 mm 2 mps 751 mmHg 33%
13:00 +39°C° 0 mm 3 mps 751 mmHg 28%
14:00 +42°C° 0 mm 3 mps 750 mmHg 24%
15:00 +42°C° 0 mm 4 mps 750 mmHg 23%
16:00 +42°C° 0 mm 5 mps 749 mmHg 22%
17:00 +44°C° 0 mm 6 mps 749 mmHg 20%
18:00 +41°C° 0 mm 5 mps 749 mmHg 22%
19:00 +38°C° 0 mm 4 mps 750 mmHg 23%
20:00 +37°C° 0 mm 4 mps 750 mmHg 24%
21:00 +35°C° 0 mm 4 mps 750 mmHg 30%
22:00 +33°C° 0 mm 4 mps 751 mmHg 36%
23:00 +32°C° 0 mm 5 mps 751 mmHg 41%

10 Agosto, Lunes

Tiempo Temperatura Precipitaciones Viento Presión Humedad
00:00 +30°C° 0 mm 4 mps 751 mmHg 48%
01:00 +29°C° 0 mm 4 mps 751 mmHg 54%
02:00 +27°C° 0 mm 3 mps 751 mmHg 61%
03:00 +27°C° 0 mm 3 mps 751 mmHg 64%
04:00 +26°C° 0 mm 3 mps 751 mmHg 66%
05:00 +25°C° 0 mm 3 mps 751 mmHg 69%
06:00 +26°C° 0 mm 3 mps 751 mmHg 68%
07:00 +27°C° 0 mm 3 mps 752 mmHg 66%
08:00 +28°C° 0 mm 3 mps 752 mmHg 65%
09:00 +29°C° 0 mm 2 mps 752 mmHg 56%
10:00 +31°C° 0 mm 1 mps 752 mmHg 48%
11:00 +31°C° 0 mm 0 mps 753 mmHg 40%
12:00 +35°C° 0 mm 1 mps 752 mmHg 34%
13:00 +38°C° 0 mm 2 mps 752 mmHg 28%
14:00 +39°C° 0 mm 3 mps 751 mmHg 21%
15:00 +41°C° 0 mm 4 mps 751 mmHg 21%
16:00 +41°C° 0 mm 4 mps 751 mmHg 20%
17:00 +41°C° 0 mm 5 mps 750 mmHg 20%
18:00 +38°C° 0 mm 4 mps 751 mmHg 21%
19:00 +37°C° 0 mm 3 mps 751 mmHg 23%
20:00 +35°C° 0 mm 2 mps 751 mmHg 24%
21:00 +34°C° 0 mm 3 mps 752 mmHg 29%
22:00 +33°C° 0 mm 4 mps 752 mmHg 34%
23:00 +32°C° 0 mm 4 mps 752 mmHg 39%

11 Agosto, Martes

Tiempo Temperatura Precipitaciones Viento Presión Humedad
00:00 +30°C° 0 mm 4 mps 752 mmHg 46%
01:00 +29°C° 0 mm 3 mps 752 mmHg 53%
02:00 +28°C° 0 mm 3 mps 752 mmHg 59%
03:00 +27°C° 0 mm 3 mps 752 mmHg 62%
04:00 +27°C° 0 mm 2 mps 752 mmHg 65%
05:00 +26°C° 0 mm 2 mps 752 mmHg 68%
06:00 +27°C° 0 mm 2 mps 753 mmHg 64%
07:00 +28°C° 0 mm 2 mps 753 mmHg 60%
08:00 +28°C° 0 mm 2 mps 753 mmHg 57%
09:00 +30°C° 0 mm 3 mps 753 mmHg 50%
10:00 +33°C° 0 mm 3 mps 753 mmHg 42%
11:00 +35°C° 0 mm 3 mps 753 mmHg 35%
12:00 +37°C° 0 mm 4 mps 753 mmHg 30%
13:00 +38°C° 0 mm 4 mps 752 mmHg 25%
14:00 +41°C° 0 mm 5 mps 752 mmHg 21%
15:00 +41°C° 0 mm 5 mps 751 mmHg 20%
16:00 +41°C° 0 mm 6 mps 751 mmHg 19%
17:00 +42°C° 0 mm 6 mps 750 mmHg 18%
18:00 +40°C° 0 mm 6 mps 751 mmHg 20%
19:00 +39°C° 0 mm 6 mps 751 mmHg 22%
20:00 +36°C° 0 mm 6 mps 751 mmHg 24%
21:00 +34°C° 0 mm 6 mps 752 mmHg 29%
22:00 +33°C° 0 mm 6 mps 752 mmHg 34%
23:00 +30°C° 0 mm 5 mps 753 mmHg 39%

12 Agosto, Miércoles

Tiempo Temperatura Precipitaciones Viento Presión Humedad
00:00 +29°C° 0 mm 5 mps 752 mmHg 45%
01:00 +28°C° 0 mm 4 mps 752 mmHg 50%
02:00 +27°C° 0 mm 3 mps 752 mmHg 55%
03:00 +26°C° 0 mm 3 mps 752 mmHg 58%
04:00 +26°C° 0 mm 2 mps 752 mmHg 61%
05:00 +25°C° 0 mm 2 mps 752 mmHg 63%
06:00 +26°C° 0 mm 3 mps 753 mmHg 62%
07:00 +27°C° 0 mm 4 mps 753 mmHg 61%
08:00 +28°C° 0 mm 4 mps 753 mmHg 59%
09:00 +30°C° 0 mm 5 mps 753 mmHg 49%
10:00 +33°C° 0 mm 5 mps 753 mmHg 38%
11:00 +35°C° 0 mm 5 mps 753 mmHg 27%
12:00 +37°C° 0 mm 5 mps 752 mmHg 24%
13:00 +39°C° 0 mm 6 mps 752 mmHg 21%
14:00 +41°C° 0 mm 7 mps 751 mmHg 18%
15:00 +41°C° 0 mm 7 mps 751 mmHg 18%
16:00 +41°C° 0 mm 7 mps 750 mmHg 17%
17:00 +41°C° 0 mm 7 mps 750 mmHg 17%
18:00 +40°C° 0 mm 6 mps 750 mmHg 20%
19:00 +37°C° 0 mm 5 mps 751 mmHg 22%
20:00 +35°C° 0 mm 4 mps 751 mmHg 25%
21:00 +33°C° 0 mm 4 mps 751 mmHg 29%
22:00 +32°C° 0 mm 4 mps 752 mmHg 34%
23:00 +29°C° 0 mm 4 mps 752 mmHg 39%
Mostrar más